sat.trackr.live / text

‹ back to catalog

STARLINK-5818

NORAD 55785 · 2023-028AW

PAYLOAD ACTIVE UNKNOWN

§ Identity

Operator
Country
US
Launch date
2023-03-03
Launch site
AFWTR
Launch vehicle
Mass (kg)
RCS (m²)

Purposes: comms

External: N2YO · Heavens-Above · Gunter

§ Orbital elements

Epoch: 2026-09-20T22:00:03.000096Z

Period
95.60 min
Inclination
70.0014°
Eccentricity
0.0003546
Mean motion
15.06283144 rev/d
Perigee alt
545.1 km
Apogee alt
550.0 km
Semi-major
6,925.7 km
B*
5.7428e-3
RAAN
72.3030°
Arg perigee
234.0890°
Mean anomaly
262.4918°
Rev number
572

§ Raw data

STARLINK-58181 55785U 23028AW  26263.91670139  .00085447  00000+0  57428-2 0  99952 55785  70.0014  72.3030 0003546 234.0890 262.4918 15.06283144  5723

JSON: /api/v1/satellites/55785 · /tle

For live sub-satellite position, see the globe view (requires WebGL).

§ Visibility from observer

Set your observer location to see the next 7 days of passes ≥ 10°. The values pass through the URL so the page stays shareable.

No JS? Fill the form by hand. The geolocation button needs JavaScript.